• In United Kingdom
  • List of Countries
  • For 7 days
  • Water Temperature
  • Satellite Maps
  • Weather Map
  • Weather Widgets
  • user-avatar
    Login

    Hourly Weather Innsbruck

    Today, 17 August, Thursday

    Time Temperature Precipitation Wind Pressure Humidity
    00:00 +8°C° 0.1 mm 1 mps 601 mmHg 91%
    01:00 +8°C° 0.1 mm 1 mps 600 mmHg 91%
    02:00 +8°C° 0 mm 1 mps 600 mmHg 91%
    03:00 +7°C° 0 mm 1 mps 600 mmHg 91%
    04:00 +7°C° 0 mm 1 mps 600 mmHg 91%
    05:00 +8°C° 0 mm 1 mps 600 mmHg 87%
    06:00 +10°C° 0 mm 1 mps 601 mmHg 84%
    07:00 +11°C° 0 mm 1 mps 602 mmHg 81%
    08:00 +14°C° 0 mm 1 mps 603 mmHg 71%
    09:00 +15°C° 0 mm 0 mps 604 mmHg 61%
    10:00 +17°C° 0 mm 0 mps 605 mmHg 50%
    11:00 +18°C° 0 mm 0 mps 605 mmHg 48%
    12:00 +20°C° 0 mm 1 mps 605 mmHg 46%
    13:00 +21°C° 0 mm 1 mps 605 mmHg 44%
    14:00 +20°C° 0.1 mm 1 mps 604 mmHg 47%
    15:00 +20°C° 0.1 mm 1 mps 604 mmHg 51%
    16:00 +19°C° 0.1 mm 1 mps 604 mmHg 54%
    17:00 +18°C° 0.3 mm 1 mps 603 mmHg 64%
    18:00 +15°C° 0.3 mm 1 mps 602 mmHg 74%
    19:00 +13°C° 0.3 mm 1 mps 602 mmHg 83%
    20:00 +12°C° 0 mm 1 mps 601 mmHg 86%
    21:00 +11°C° 0 mm 1 mps 601 mmHg 89%
    22:00 +9°C° 0 mm 1 mps 601 mmHg 92%
    23:00 +9°C° 0 mm 1 mps 601 mmHg 92%

    Tomorrow, 18 August, Friday

    Time Temperature Precipitation Wind Pressure Humidity
    00:00 +9°C° 0 mm 1 mps 601 mmHg 91%
    01:00 +9°C° 0 mm 1 mps 601 mmHg 91%
    02:00 +9°C° 0 mm 1 mps 600 mmHg 91%
    03:00 +8°C° 0 mm 2 mps 600 mmHg 91%
    04:00 +8°C° 0 mm 2 mps 600 mmHg 91%
    05:00 +9°C° 0 mm 2 mps 600 mmHg 88%
    06:00 +10°C° 0 mm 2 mps 601 mmHg 86%
    07:00 +12°C° 0 mm 2 mps 601 mmHg 84%
    08:00 +14°C° 0 mm 2 mps 602 mmHg 75%
    09:00 +18°C° 0 mm 1 mps 603 mmHg 65%
    10:00 +20°C° 0 mm 1 mps 604 mmHg 55%
    11:00 +20°C° 0 mm 2 mps 604 mmHg 52%
    12:00 +21°C° 0 mm 2 mps 604 mmHg 49%
    13:00 +21°C° 0 mm 2 mps 604 mmHg 47%
    14:00 +21°C° 0.6 mm 2 mps 603 mmHg 52%
    15:00 +20°C° 0.6 mm 2 mps 602 mmHg 57%
    16:00 +19°C° 0.6 mm 2 mps 602 mmHg 63%
    17:00 +17°C° 1.4 mm 2 mps 601 mmHg 70%
    18:00 +16°C° 1.4 mm 2 mps 600 mmHg 77%
    19:00 +14°C° 1.4 mm 1 mps 600 mmHg 84%
    20:00 +13°C° 1.1 mm 2 mps 599 mmHg 87%
    21:00 +12°C° 1.1 mm 2 mps 599 mmHg 91%
    22:00 +10°C° 1.1 mm 2 mps 599 mmHg 94%
    23:00 +10°C° 2.6 mm 2 mps 599 mmHg 95%

    Day after tomorrow, 19 August, Saturday

    Time Temperature Precipitation Wind Pressure Humidity
    00:00 +9°C° 2.6 mm 2 mps 599 mmHg 96%
    01:00 +10°C° 2.6 mm 1 mps 599 mmHg 97%
    02:00 +8°C° 4.4 mm 2 mps 599 mmHg 97%
    03:00 +7°C° 4.4 mm 2 mps 599 mmHg 97%
    04:00 +7°C° 4.4 mm 2 mps 598 mmHg 97%
    05:00 +7°C° 4.2 mm 2 mps 598 mmHg 97%
    06:00 +6°C° 4.2 mm 2 mps 598 mmHg 97%
    07:00 +6°C° 4.2 mm 2 mps 598 mmHg 97%
    08:00 +6°C° 1 mm 2 mps 599 mmHg 95%
    09:00 +7°C° 1 mm 2 mps 599 mmHg 94%
    10:00 +7°C° 1 mm 2 mps 600 mmHg 92%
    11:00 +8°C° 0.2 mm 2 mps 600 mmHg 85%
    12:00 +9°C° 0.2 mm 2 mps 601 mmHg 79%
    13:00 +10°C° 0.2 mm 2 mps 601 mmHg 72%
    14:00 +12°C° 0.2 mm 2 mps 601 mmHg 71%
    15:00 +12°C° 0.2 mm 2 mps 601 mmHg 69%
    16:00 +11°C° 0.2 mm 3 mps 601 mmHg 68%
    17:00 +10°C° 0.1 mm 2 mps 601 mmHg 75%
    18:00 +8°C° 0.1 mm 2 mps 601 mmHg 82%
    19:00 +7°C° 0.1 mm 2 mps 600 mmHg 89%
    20:00 +6°C° 0 mm 2 mps 600 mmHg 90%
    21:00 +6°C° 0 mm 2 mps 601 mmHg 92%
    22:00 +5°C° 0 mm 2 mps 601 mmHg 94%
    23:00 +5°C° 0 mm 2 mps 601 mmHg 94%

    20 August, Sunday

    Time Temperature Precipitation Wind Pressure Humidity
    00:00 +4°C° 0 mm 2 mps 600 mmHg 95%
    01:00 +5°C° 0 mm 1 mps 600 mmHg 95%
    02:00 +4°C° 0 mm 1 mps 600 mmHg 95%
    03:00 +4°C° 0 mm 1 mps 600 mmHg 95%
    04:00 +4°C° 0 mm 1 mps 600 mmHg 95%
    05:00 +4°C° 0 mm 1 mps 600 mmHg 92%
    06:00 +5°C° 0 mm 1 mps 601 mmHg 90%
    07:00 +6°C° 0 mm 1 mps 601 mmHg 88%
    08:00 +8°C° 0 mm 1 mps 602 mmHg 77%
    09:00 +8°C° 0 mm 2 mps 603 mmHg 65%
    10:00 +10°C° 0 mm 2 mps 604 mmHg 54%
    11:00 +12°C° 0 mm 2 mps 604 mmHg 49%
    12:00 +14°C° 0 mm 2 mps 605 mmHg 44%
    13:00 +15°C° 0 mm 2 mps 605 mmHg 39%
    14:00 +14°C° 0 mm 2 mps 605 mmHg 41%
    15:00 +14°C° 0 mm 2 mps 605 mmHg 43%
    16:00 +14°C° 0 mm 2 mps 604 mmHg 45%
    17:00 +12°C° 0 mm 2 mps 604 mmHg 55%
    18:00 +9°C° 0 mm 2 mps 603 mmHg 66%
    19:00 +8°C° 0 mm 1 mps 602 mmHg 77%
    20:00 +7°C° 0 mm 1 mps 602 mmHg 81%
    21:00 +6°C° 0 mm 1 mps 602 mmHg 85%
    22:00 +5°C° 0 mm 1 mps 601 mmHg 89%
    23:00 +4°C° 0 mm 1 mps 601 mmHg 87%

    21 August, Monday

    Time Temperature Precipitation Wind Pressure Humidity
    00:00 +4°C° 0 mm 1 mps 601 mmHg 84%
    01:00 +4°C° 0 mm 1 mps 601 mmHg 82%
    02:00 +4°C° 0 mm 1 mps 601 mmHg 79%
    03:00 +4°C° 0 mm 1 mps 601 mmHg 75%
    04:00 +4°C° 0 mm 1 mps 600 mmHg 71%
    05:00 +6°C° 0 mm 1 mps 601 mmHg 65%
    06:00 +7°C° 0 mm 1 mps 602 mmHg 59%
    07:00 +9°C° 0 mm 1 mps 603 mmHg 53%
    08:00 +12°C° 0 mm 1 mps 604 mmHg 47%
    09:00 +14°C° 0 mm 1 mps 605 mmHg 40%
    10:00 +18°C° 0 mm 1 mps 605 mmHg 33%
    11:00 +19°C° 0 mm 1 mps 605 mmHg 33%
    12:00 +20°C° 0 mm 1 mps 605 mmHg 32%
    13:00 +21°C° 0 mm 1 mps 605 mmHg 32%
    14:00 +21°C° 0 mm 1 mps 605 mmHg 34%
    15:00 +19°C° 0 mm 2 mps 605 mmHg 36%
    16:00 +19°C° 0 mm 2 mps 604 mmHg 38%
    17:00 +18°C° 0 mm 1 mps 603 mmHg 51%
    18:00 +14°C° 0 mm 1 mps 602 mmHg 64%
    19:00 +10°C° 0 mm 0 mps 600 mmHg 76%
    20:00 +10°C° 0 mm 1 mps 600 mmHg 78%
    21:00 +9°C° 0 mm 1 mps 600 mmHg 79%
    22:00 +9°C° 0 mm 1 mps 600 mmHg 81%
    23:00 +8°C° 0 mm 1 mps 599 mmHg 81%

    22 August, Tuesday

    Time Temperature Precipitation Wind Pressure Humidity
    00:00 +8°C° 0 mm 1 mps 599 mmHg 80%
    01:00 +8°C° 0 mm 1 mps 599 mmHg 80%
    02:00 +8°C° 0 mm 1 mps 599 mmHg 80%
    03:00 +8°C° 0 mm 1 mps 598 mmHg 80%
    04:00 +7°C° 0 mm 1 mps 598 mmHg 79%
    05:00 +9°C° 0 mm 1 mps 599 mmHg 76%
    06:00 +10°C° 0 mm 1 mps 599 mmHg 72%
    07:00 +12°C° 0 mm 1 mps 600 mmHg 68%
    08:00 +14°C° 0 mm 1 mps 601 mmHg 60%
    09:00 +16°C° 0 mm 1 mps 601 mmHg 52%
    10:00 +20°C° 0 mm 1 mps 602 mmHg 43%
    11:00 +20°C° 0 mm 1 mps 602 mmHg 42%
    12:00 +20°C° 0 mm 2 mps 602 mmHg 42%
    13:00 +20°C° 0 mm 2 mps 602 mmHg 41%
    14:00 +19°C° 0.2 mm 2 mps 601 mmHg 47%
    15:00 +18°C° 0.2 mm 2 mps 601 mmHg 54%
    16:00 +17°C° 0.2 mm 2 mps 600 mmHg 60%
    17:00 +15°C° 1.1 mm 2 mps 600 mmHg 71%
    18:00 +14°C° 1.1 mm 2 mps 599 mmHg 81%
    19:00 +12°C° 1.1 mm 1 mps 599 mmHg 92%
    20:00 +11°C° 0.9 mm 1 mps 599 mmHg 93%
    21:00 +11°C° 0.9 mm 1 mps 599 mmHg 95%
    22:00 +10°C° 0.9 mm 1 mps 599 mmHg 96%
    23:00 +10°C° 0.7 mm 1 mps 599 mmHg 96%
    Show more